EW4337 Weather Reports


Display with metric or nautical units.
time (UTC)temp
F
wind
direction
speed
MPH
gust
MPH
rain 1hr
in
rain 24hr
in
rain mn
in
humidity
%
barometer
mb
20260510063203 54 337 3.0 10.0 0.00 0.00 0.00 71 1014.4
20260510062703 54 3 3.0 9.0 0.00 0.00 0.00 73 1014.4
20260510062203 54 358 5.0 12.0 0.00 0.00 0.00 73 1014.3
20260510061704 54 354 3.0 9.0 0.00 0.00 0.00 73 1014.3
20260510061204 53 340 3.0 10.0 0.00 0.00 0.00 73 1014.3
20260510060204 53 5 3.0 7.0 0.00 0.00 0.00 75 1014.3
20260510055704 52 348 2.0 6.0 0.00 0.00 0.00 76 1014.4
20260510055203 52 347 3.0 9.0 0.00 0.00 0.00 77 1014.4
20260510054704 52 350 4.0 8.0 0.00 0.00 0.00 78 1014.4
20260510054203 51 348 3.0 9.0 0.00 0.00 0.00 80 1014.4
20260510053703 51 339 4.0 8.0 0.00 0.00 0.00 82 1014.4
20260510053203 51 338 3.0 9.0 0.00 0.00 0.00 83 1014.4
20260510052703 50 326 3.0 8.0 0.00 0.00 0.00 84 1014.4
20260510052203 50 334 2.0 8.0 0.00 0.00 0.00 84 1014.3
20260510051203 49 311 2.0 8.0 0.00 0.00 0.00 86 1014.3
20260510050704 49 316 2.0 3.0 0.00 0.00 0.00 86 1014.3
20260510050204 49 312 2.0 3.0 0.00 0.00 0.00 86 1014.3
20260510045203 49 330 2.0 3.0 0.00 0.00 0.00 87 1014.3
20260510044703 49 328 2.0 5.0 0.00 0.00 0.00 87 1014.2
20260510043704 49 335 2.0 5.0 0.00 0.00 0.00 87 1014.2
20260510043204 49 327 1.0 3.0 0.00 0.00 0.00 87 1014.3
20260510042703 49 345 1.0 3.0 0.00 0.00 0.00 87 1014.4
20260510042203 49 340 2.0 3.0 0.00 0.00 0.00 87 1014.3
20260510041204 49 327 2.0 5.0 0.00 0.00 0.00 87 1014.4
20260510040704 49 336 2.0 5.0 0.00 0.00 0.00 87 1014.3
20260510040204 49 331 1.0 5.0 0.00 0.00 0.00 87 1014.4
20260510035704 49 327 2.0 5.0 0.00 0.00 0.00 87 1014.4
20260510035204 49 329 2.0 3.0 0.00 0.00 0.00 87 1014.4
20260510034704 49 332 2.0 6.0 0.00 0.00 0.00 87 1014.4
20260510034203 49 322 1.0 3.0 0.00 0.00 0.00 86 1014.5
20260510033704 49 324 1.0 3.0 0.00 0.00 0.00 86 1014.4
20260510032703 49 326 2.0 6.0 0.00 0.00 0.00 86 1014.4
20260510031704 49 322 1.0 5.0 0.00 0.00 0.00 86 1014.4
20260510031204 49 316 2.0 5.0 0.00 0.00 0.00 86 1014.4
20260510030703 49 333 3.0 7.0 0.00 0.00 0.00 86 1014.3
20260510030203 49 5 2.0 5.0 0.00 0.00 0.00 86 1014.3
20260510025703 49 332 0.0 3.0 0.00 0.00 0.00 85 1014.4
20260510025203 49 313 3.0 5.0 0.00 0.00 0.00 85 1014.5
20260510024204 49 332 1.0 3.0 0.00 0.00 0.00 85 1014.5
20260510023703 49 334 1.0 3.0 0.00 0.00 0.00 84 1014.6
20260510023203 49 336 3.0 5.0 0.00 0.00 0.00 84 1014.7
20260510021703 50 305 2.0 3.0 0.00 0.00 0.00 83 1014.7
20260510021204 50 315 1.0 5.0 0.00 0.00 0.00 83 1014.8
20260510015704 50 324 2.0 5.0 0.00 0.00 0.00 83 1014.8
20260510015204 50 319 2.0 3.0 0.00 0.00 0.00 84 1014.8
20260510014703 50 301 2.0 5.0 0.00 0.00 0.00 84 1014.9
20260510013704 50 328 3.0 7.0 0.00 0.00 0.00 84 1014.8
20260510013204 50 305 3.0 3.0 0.00 0.00 0.00 84 1014.8
20260510012703 50 321 1.0 3.0 0.00 0.00 0.00 85 1014.8
20260510012203 50 303 2.0 8.0 0.00 0.00 0.00 85 1014.8
20260510011204 50 320 1.0 3.0 0.00 0.00 0.00 85 1014.8
20260510010703 50 303 1.0 3.0 0.00 0.00 0.00 85 1014.9
20260510010203 50 315 1.0 3.0 0.00 0.00 0.00 85 1014.9
20260510005203 50 295 1.0 3.0 0.00 0.00 0.00 85 1014.9
20260510004204 50 298 1.0 3.0 0.00 0.00 0.00 85 1015.0
20260510003704 50 317 1.0 3.0 0.00 0.00 0.00 85 1015.0
20260510003204 50 305 1.0 3.0 0.00 0.00 0.00 85 1015.0
20260510002703 50 308 2.0 3.0 0.00 0.00 0.00 85 1015.1
20260510002204 50 311 1.0 3.0 0.00 0.00 0.00 85 1015.1
20260510001705 50 313 0.0 3.0 0.00 0.00 0.00 84 1015.1
20260510001204 50 313 1.0 3.0 0.00 0.00 0.00 85 1015.1
20260509235704 50 321 0.0 2.0 0.00 0.00 0.00 85 1015.2
20260509235204 50 322 1.0 3.0 0.00 0.00 0.00 85 1015.2
20260509234204 50 312 1.0 2.0 0.00 0.00 0.00 85 1015.4
20260509233704 50 322 1.0 2.0 0.00 0.00 0.00 85 1015.4
20260509233204 51 297 1.0 3.0 0.00 0.00 0.00 85 1015.4
20260509232704 51 307 1.0 3.0 0.00 0.00 0.00 85 1015.5
20260509232204 51 317 1.0 2.0 0.00 0.00 0.00 85 1015.5
20260509231704 51 287 1.0 3.0 0.00 0.00 0.00 85 1015.6
20260509231204 51 315 0.0 2.0 0.00 0.00 0.00 84 1015.6
20260509230704 51 312 1.0 3.0 0.00 0.00 0.00 84 1015.7
20260509230204 51 298 1.0 3.0 0.00 0.00 0.00 84 1015.7
20260509225704 51 300 1.0 2.0 0.00 0.00 0.00 84 1015.7
20260509225204 51 333 0.0 2.0 0.00 0.00 0.00 84 1015.7
20260509224704 51 325 0.0 2.0 0.00 0.00 0.00 84 1015.7
20260509223704 52 329 1.0 2.0 0.00 0.00 0.00 83 1015.8
20260509223204 52 313 1.0 3.0 0.00 0.00 0.00 83 1015.7
20260509222704 52 316 1.0 3.0 0.00 0.00 0.00 83 1015.7
20260509222204 52 312 1.0 3.0 0.00 0.00 0.00 83 1015.8
20260509221704 52 332 1.0 2.0 0.00 0.00 0.00 82 1015.8
20260509221205 52 317 1.0 2.0 0.00 0.00 0.00 82 1015.8
20260509220704 52 327 0.0 2.0 0.00 0.00 0.00 82 1015.8
20260509220205 52 331 0.0 2.0 0.00 0.00 0.00 81 1015.8
20260509215703 52 321 1.0 2.0 0.00 0.00 0.00 81 1015.9
20260509215203 52 359 1.0 3.0 0.00 0.00 0.00 81 1015.9
20260509214704 52 317 0.0 2.0 0.00 0.00 0.00 81 1015.9
20260509214203 53 13 1.0 3.0 0.00 0.00 0.00 80 1016.0
20260509213703 53 340 2.0 3.0 0.00 0.00 0.00 80 1016.0
20260509213203 53 321 1.0 3.0 0.00 0.00 0.00 80 1016.1
20260509212703 53 330 1.0 2.0 0.00 0.00 0.00 80 1016.1
20260509211703 53 305 0.0 2.0 0.00 0.00 0.00 79 1016.2
20260509211204 53 303 1.0 3.0 0.00 0.00 0.00 79 1016.2
20260509210204 54 322 0.0 3.0 0.00 0.00 0.00 78 1016.1
20260509205204 54 321 1.0 3.0 0.00 0.00 0.00 78 1016.2
20260509204704 54 335 1.0 3.0 0.00 0.00 0.00 77 1016.3
20260509204203 55 334 1.0 3.0 0.00 0.00 0.00 77 1016.3
20260509203703 55 328 2.0 5.0 0.00 0.00 0.00 77 1016.3
20260509203203 55 313 1.0 3.0 0.00 0.00 0.00 76 1016.3
20260509202703 55 318 2.0 3.0 0.00 0.00 0.00 76 1016.3
20260509202203 56 323 2.0 5.0 0.00 0.00 0.00 76 1016.3
20260509201704 56 296 1.0 3.0 0.00 0.00 0.00 75 1016.3
20260509201204 56 329 2.0 3.0 0.00 0.00 0.00 75 1016.3
20260509200703 56 326 2.0 3.0 0.00 0.00 0.00 74 1016.3
20260509200203 56 330 2.0 3.0 0.00 0.00 0.00 74 1016.3
20260509195704 57 322 2.0 5.0 0.00 0.00 0.00 74 1016.3
20260509195203 57 325 2.0 5.0 0.00 0.00 0.00 74 1016.2
20260509194703 57 346 3.0 5.0 0.00 0.00 0.00 73 1016.2
20260509194203 57 346 2.0 5.0 0.00 0.00 0.00 73 1016.2
20260509193203 58 333 3.0 5.0 0.00 0.00 0.00 72 1016.2
20260509192704 58 349 2.0 6.0 0.00 0.00 0.00 72 1016.1
20260509192204 58 346 2.0 5.0 0.00 0.00 0.00 72 1016.2
20260509191706 58 342 3.0 8.0 0.00 0.00 0.00 71 1016.2
20260509191203 58 336 2.0 6.0 0.00 0.00 0.00 71 1016.1
20260509190703 59 337 3.0 6.0 0.00 0.00 0.00 71 1016.0
20260509190204 59 339 3.0 6.0 0.00 0.00 0.00 71 1015.9
20260509185704 59 322 3.0 6.0 0.00 0.00 0.00 71 1015.9
20260509185204 59 344 2.0 7.0 0.00 0.00 0.00 71 1015.9
20260509184704 59 348 2.0 8.0 0.00 0.00 0.00 71 1015.9
20260509184203 59 337 2.0 9.0 0.00 0.00 0.00 71 1015.9
20260509183703 60 338 3.0 9.0 0.00 0.00 0.00 71 1015.8
20260509183204 60 324 5.0 9.0 0.00 0.00 0.00 70 1015.9
20260509182204 61 331 3.0 10.0 0.00 0.00 0.00 68 1015.9
20260509181704 61 324 3.0 8.0 0.00 0.00 0.00 67 1016.0
20260509180705 61 354 2.0 6.0 0.00 0.00 0.00 66 1016.0
20260509180204 61 336 3.0 6.0 0.00 0.00 0.00 66 1015.9
20260509175704 62 341 3.0 8.0 0.00 0.00 0.00 65 1015.9
20260509175204 62 349 3.0 6.0 0.00 0.00 0.00 65 1015.9
20260509174704 62 339 4.0 8.0 0.00 0.00 0.00 64 1015.9
20260509174204 62 319 3.0 9.0 0.00 0.00 0.00 64 1015.8
20260509173704 62 330 3.0 6.0 0.00 0.00 0.00 64 1015.8
20260509173203 62 358 2.0 7.0 0.00 0.00 0.00 63 1015.7
20260509172702 63 352 2.0 6.0 0.00 0.00 0.00 63 1015.7
20260509172203 63 26 2.0 8.0 0.00 0.00 0.00 62 1015.7
20260509171702 63 12 4.0 8.0 0.00 0.00 0.00 62 1015.6
20260509171203 63 23 4.0 8.0 0.00 0.00 0.00 61 1015.6
20260509170202 64 40 3.0 7.0 0.00 0.00 0.00 61 1015.6
20260509165703 64 15 3.0 7.0 0.00 0.00 0.00 61 1015.6
20260509165202 64 41 3.0 9.0 0.00 0.00 0.00 60 1015.5
20260509164703 64 32 3.0 7.0 0.00 0.00 0.00 60 1015.5
20260509164203 64 52 1.0 3.0 0.00 0.00 0.00 60 1015.5
20260509163703 64 10 2.0 5.0 0.00 0.00 0.00 61 1015.6
20260509163203 63 78 2.0 9.0 0.00 0.00 0.00 61 1015.6
20260509162704 63 346 3.0 9.0 0.00 0.00 0.00 61 1015.6
20260509162202 63 348 3.0 9.0 0.00 0.00 0.00 61 1015.6
20260509160702 64 20 3.0 8.0 0.00 0.00 0.00 60 1015.7
20260509160203 64 49 3.0 9.0 0.00 0.00 0.00 59 1015.8
20260509155203 64 4 3.0 8.0 0.00 0.00 0.00 59 1015.9
20260509154703 64 35 2.0 7.0 0.00 0.00 0.00 59 1015.9
20260509154202 64 66 6.0 13.0 0.00 0.00 0.00 58 1015.9
20260509153702 64 51 3.0 10.0 0.00 0.00 0.00 58 1015.9
20260509153203 64 36 3.0 7.0 0.00 0.00 0.00 58 1015.9
20260509152703 65 71 4.0 10.0 0.00 0.00 0.00 57 1016.0
20260509151702 66 44 6.0 9.0 0.00 0.00 0.00 56 1016.1
20260509150703 65 18 2.0 6.0 0.00 0.00 0.00 56 1016.2
20260509150203 66 296 1.0 3.0 0.00 0.00 0.00 55 1016.2
20260509145703 66 35 3.0 6.0 0.00 0.00 0.00 55 1016.3
20260509145203 65 28 3.0 6.0 0.00 0.00 0.00 57 1016.4
20260509144703 64 69 2.0 8.0 0.00 0.00 0.00 59 1016.4
20260509144203 63 31 1.0 5.0 0.00 0.00 0.00 60 1016.5
20260509143203 63 1 2.0 5.0 0.00 0.00 0.00 59 1016.6
20260509142703 63 24 2.0 8.0 0.00 0.00 0.00 58 1016.7
20260509141702 64 46 2.0 10.0 0.00 0.00 0.00 58 1016.8
20260509141203 64 24 3.0 6.0 0.00 0.00 0.00 58 1016.8
20260509140703 64 4 1.0 2.0 0.00 0.00 0.00 58 1016.8
20260509140203 64 354 2.0 6.0 0.00 0.00 0.00 58 1016.8
20260509135703 63 37 2.0 7.0 0.00 0.00 0.00 58 1016.9
20260509135203 63 19 3.0 6.0 0.00 0.00 0.00 58 1016.9
20260509134703 63 47 0.0 2.0 0.00 0.00 0.00 57 1017.0
20260509134203 63 74 4.0 8.0 0.00 0.00 0.00 58 1017.1
20260509133703 63 84 5.0 8.0 0.00 0.00 0.00 59 1017.1
20260509133203 63 74 5.0 8.0 0.00 0.00 0.00 58 1017.2
20260509132703 63 71 4.0 10.0 0.00 0.00 0.00 58 1017.3
20260509132203 63 62 3.0 8.0 0.00 0.00 0.00 58 1017.3
20260509131203 63 47 3.0 9.0 0.00 0.00 0.00 58 1017.5
20260509130203 63 75 5.0 8.0 0.00 0.00 0.00 58 1017.5
20260509125703 63 41 5.0 8.0 0.00 0.00 0.00 58 1017.6
20260509125203 63 30 3.0 6.0 0.00 0.00 0.00 59 1017.5
20260509124703 63 354 1.0 3.0 0.00 0.00 0.00 58 1017.5
20260509124203 63 82 3.0 5.0 0.00 0.00 0.00 59 1017.5
20260509123703 63 54 3.0 10.0 0.00 0.00 0.00 60 1017.6
20260509123204 62 71 3.0 8.0 0.00 0.00 0.00 60 1017.6
20260509122704 62 26 5.0 9.0 0.00 0.00 0.00 60 1017.7
20260509122203 62 19 5.0 10.0 0.00 0.00 0.00 60 1017.6
20260509121703 62 29 4.0 9.0 0.00 0.00 0.00 59 1017.7
20260509121204 63 50 6.0 10.0 0.00 0.00 0.00 59 1017.8
20260509120203 63 53 3.0 9.0 0.00 0.00 0.00 59 1017.8
20260509114703 63 79 6.0 12.0 0.00 0.00 0.00 59 1018.0
20260509114203 63 29 5.0 9.0 0.00 0.00 0.00 58 1018.0
20260509113703 63 92 4.0 13.0 0.00 0.00 0.00 58 1018.1
20260509113204 63 83 5.0 10.0 0.00 0.00 0.00 58 1018.0
20260509112704 62 83 7.0 13.0 0.00 0.00 0.00 59 1018.1
20260509112203 62 60 6.0 12.0 0.00 0.00 0.00 60 1018.2
20260509111203 61 62 6.0 9.0 0.00 0.00 0.00 60 1018.4
20260509105704 63 44 7.0 13.0 0.00 0.00 0.00 58 1018.5
20260509105204 63 85 5.0 10.0 0.00 0.00 0.00 59 1018.5
20260509104703 62 82 4.0 10.0 0.00 0.00 0.00 60 1018.6
20260509104204 61 85 5.0 12.0 0.00 0.00 0.00 59 1018.5
20260509103705 62 35 5.0 12.0 0.00 0.00 0.00 60 1018.6
20260509102704 61 78 7.0 12.0 0.00 0.00 0.00 60 1018.6
20260509102204 60 84 7.0 12.0 0.00 0.00 0.00 60 1018.6
20260509101203 60 82 9.0 14.0 0.00 0.00 0.00 60 1018.7
20260509100704 60 91 6.0 9.0 0.00 0.00 0.00 60 1018.8
20260509095705 60 86 5.0 9.0 0.00 0.00 0.00 59 1018.7
20260509095204 61 80 6.0 10.0 0.00 0.00 0.00 58 1018.8
20260509094703 61 48 6.0 10.0 0.00 0.00 0.00 58 1018.8
20260509094204 61 93 6.0 10.0 0.00 0.00 0.00 58 1018.8
20260509093704 61 48 6.0 12.0 0.00 0.00 0.00 57 1018.7
20260509093204 62 94 5.0 9.0 0.00 0.00 0.00 56 1018.7
20260509092704 61 86 5.0 9.0 0.00 0.00 0.00 59 1018.8
20260509092203 61 58 4.0 9.0 0.00 0.00 0.00 60 1018.8
20260509091704 60 80 6.0 10.0 0.00 0.00 0.00 62 1018.9
20260509091204 60 114 7.0 12.0 0.00 0.00 0.00 62 1018.9
20260509090704 60 92 6.0 10.0 0.00 0.00 0.00 63 1019.0
20260509090204 60 37 5.0 9.0 0.00 0.00 0.00 64 1019.0
20260509085704 60 66 5.0 10.0 0.00 0.00 0.00 61 1019.0
20260509085205 60 70 6.0 10.0 0.00 0.00 0.00 64 1019.0
20260509084704 60 94 6.0 10.0 0.00 0.00 0.00 67 1019.0
20260509084204 59 92 7.0 10.0 0.00 0.00 0.00 66 1019.0
20260509083204 59 71 5.0 10.0 0.00 0.00 0.00 68 1019.0
20260509082202 59 75 6.0 12.0 0.00 0.00 0.00 69 1019.1
20260509081702 59 75 6.0 12.0 0.00 0.00 0.00 69 1019.1
20260509081202 58 82 5.0 8.0 0.00 0.00 0.00 70 1019.2
20260509080202 58 90 4.0 10.0 0.00 0.00 0.00 70 1019.2
20260509075203 58 41 3.0 7.0 0.00 0.00 0.00 71 1019.2
20260509074702 57 80 5.0 9.0 0.00 0.00 0.00 71 1019.3
20260509074203 57 81 5.0 9.0 0.00 0.00 0.00 71 1019.3
20260509073702 57 80 5.0 12.0 0.00 0.00 0.00 72 1019.2
20260509073202 57 80 5.0 10.0 0.00 0.00 0.00 74 1019.2
20260509072702 57 74 4.0 8.0 0.00 0.00 0.00 75 1019.3
20260509072203 56 120 2.0 6.0 0.00 0.00 0.00 75 1019.4
20260509071703 56 88 3.0 7.0 0.00 0.00 0.00 76 1019.4
20260509071202 55 101 6.0 9.0 0.00 0.00 0.00 76 1019.4
20260509070703 55 82 6.0 10.0 0.00 0.00 0.00 77 1019.5
20260509070203 55 106 5.0 10.0 0.00 0.00 0.00 79 1019.5
20260509064703 53 82 6.0 9.0 0.00 0.00 0.00 84 1019.4
20260509064203 52 83 5.0 9.0 0.00 0.00 0.00 84 1019.3